Weather History for Ann Arbor, MI

Change the Weather History Date:

Monday, January 27, 2014

  Actual Average Record
Temperature  
Mean Temperature 7 °F -  
Max Temperature 23 °F 27 °F 54 °F (2002)
Min Temperature -9 °F 10 °F -14 °F (2003)
Degree Days  
Heating Degree Days 58    
Moisture  
Dew Point 1 °F    
Average Humidity 71    
Maximum Humidity 86    
Minimum Humidity 55    
Precipitation  
Precipitation 0.01 in - - ()
Sea Level Pressure  
Sea Level Pressure 29.94 in    
Wind  
Wind Speed 14 mph (WNW)    
Max Wind Speed 22 mph    
Max Gust Speed 30 mph    
Visibility 4 miles    
Events Fog , Snow    
Averages and records for this station are not official NWS values.
T = Trace of Precipitation, MM = Missing Value Source: NWS Daily Summary

Daily Weather History Graph

Daily Weather History Graph

Search for Another Location

Airport:

Trip Planner

Search our weather history database for the weather conditions in past years. The results will help you decide how hot, cold, wet, or windy it might be!

Date:

Astronomy

Jan. 27, 2014 Rise Set
Actual Time 7:53 AM EST 5:42 PM EST
Civil Twilight 7:22 AM EST 6:13 PM EST
Nautical Twilight 6:49 AM EST 6:46 PM EST
Astronomical Twilight 6:16 AM EST 7:19 PM EST
Moon 4:34 AM EST (1/27) 2:27 PM EST (1/27)
Length of Visible Light 10h 50m
Length of Day
9h 49m
Waning Crescent, 15% of the Moon is Illuminated
Jan 27
Waning Crescent
Jan 30
New
Feb 6
First Quarter
Feb 14
Full
Feb 22
Last Quarter

Hourly Weather History & Observations

Time (EST) Temp. Windchill Dew Point Humidity Pressure Visibility Wind Dir Wind Speed Gust Speed Precip Events Conditions
12:04 AM 23.0 °F 10.1 °F 19.4 °F 86% 29.40 in 0.5 mi NW 15.0 mph - 0.00 in Fog , Snow Snow
12:36 AM 19.4 °F 7.2 °F 15.8 °F 86% 29.44 in 0.8 mi NNW 11.5 mph 27.6 mph 0.00 in Snow Light Snow
12:43 AM 19.4 °F 7.9 °F 15.8 °F 86% 29.44 in 1.2 mi NW 10.4 mph - 0.00 in Snow Light Snow
12:53 AM 18.0 °F 5.4 °F 14.0 °F 84% 29.49 in 1.2 mi NW 11.5 mph 18.4 mph 0.00 in Snow Light Snow
1:27 AM 17.6 °F 8.2 °F 14.0 °F 86% 29.46 in 1.2 mi NW 6.9 mph - 0.00 in Snow Light Snow
1:53 AM 17.1 °F 3.6 °F 12.9 °F 84% 29.53 in 1.0 mi NW 12.7 mph 19.6 mph 0.01 in Snow Light Snow
1:59 AM 17.6 °F 3.7 °F 12.2 °F 79% 29.49 in 0.8 mi NW 13.8 mph 19.6 mph 0.00 in Snow Light Snow
2:24 AM 14.0 °F -2.0 °F 8.6 °F 79% 29.52 in 1.0 mi NW 16.1 mph 25.3 mph 0.00 in Snow Light Snow
2:31 AM 14.0 °F -1.4 °F 8.6 °F 79% 29.53 in 1.5 mi NW 15.0 mph 28.8 mph 0.00 in Snow Light Snow
2:45 AM 14.0 °F -2.0 °F 8.6 °F 79% 29.57 in 2.0 mi NW 16.1 mph 25.3 mph 0.00 in Snow Light Snow
2:48 AM 14.0 °F -3.0 °F 8.6 °F 79% 29.57 in 1.2 mi NW 18.4 mph 26.5 mph 0.00 in Snow Light Snow
2:53 AM 14.0 °F -4.3 °F 8.1 °F 77% 29.62 in 1.0 mi NW 21.9 mph 28.8 mph 0.00 in Snow Light Snow
3:02 AM 14.0 °F -3.4 °F 6.8 °F 73% 29.59 in 2.0 mi NW 19.6 mph 27.6 mph 0.00 in Snow Light Snow
3:21 AM 12.2 °F -5.8 °F 3.2 °F 67% 29.61 in 4.0 mi WNW 19.6 mph 28.8 mph 0.00 in   Haze
3:53 AM 10.9 °F -5.4 °F -0.0 °F 61% 29.69 in 6.0 mi WNW 15.0 mph 29.9 mph 0.00 in   Haze
4:53 AM 10.0 °F -6.5 °F -0.0 °F 64% 29.76 in 9.0 mi WNW 15.0 mph 28.8 mph N/A   Partly Cloudy
5:53 AM 9.0 °F -8.5 °F -0.0 °F 67% 29.83 in 9.0 mi WNW 16.1 mph 23.0 mph N/A   Clear
6:33 AM 8.6 °F -8.3 °F 1.4 °F 73% 29.82 in 2.5 mi WNW 15.0 mph - 0.00 in Snow Light Snow
6:41 AM 8.6 °F -5.5 °F 3.2 °F 79% 29.83 in 1.8 mi WNW 10.4 mph 19.6 mph 0.00 in Snow Light Snow
6:45 AM 8.6 °F -5.5 °F 3.2 °F 79% 29.83 in 3.0 mi WNW 10.4 mph - 0.00 in Snow Light Snow
6:53 AM 8.1 °F -7.7 °F 1.0 °F 73% 29.89 in 7.0 mi WNW 12.7 mph - 0.00 in Snow Light Snow
7:02 AM 8.6 °F -8.3 °F -0.4 °F 67% 29.85 in 10.0 mi WNW 15.0 mph 24.2 mph 0.00 in   Scattered Clouds
7:53 AM 7.0 °F -5.7 °F -4.0 °F 61% 29.94 in 10.0 mi WNW 8.1 mph 19.6 mph 0.00 in   Clear
8:53 AM 6.1 °F -10.2 °F -6.0 °F 58% 29.99 in 10.0 mi NW 12.7 mph - N/A   Clear
9:53 AM 7.0 °F -10.4 °F -6.0 °F 55% 30.03 in 10.0 mi WNW 15.0 mph 20.7 mph N/A   Clear
10:53 AM 7.0 °F -7.5 °F -2.9 °F 64% 30.06 in 9.0 mi WNW 10.4 mph - N/A   Mostly Cloudy
11:00 AM 8.6 °F -7.7 °F -2.2 °F 62% 30.02 in 9.0 mi West 13.8 mph - N/A   Overcast
11:14 AM 8.6 °F -5.5 °F -0.4 °F 67% 30.02 in 5.0 mi WNW 10.4 mph - 0.00 in Snow Light Snow
11:53 AM 9.0 °F -4.2 °F -0.0 °F 67% 30.07 in 5.0 mi NW 9.2 mph - 0.00 in Snow Light Snow
12:03 PM 8.6 °F 0.1 °F 1.4 °F 73% 30.02 in 2.0 mi NW 4.6 mph - 0.00 in Snow Light Snow
12:13 PM 8.6 °F -4.7 °F -0.4 °F 67% 30.02 in 6.0 mi WNW 9.2 mph - 0.00 in Snow Light Snow
12:29 PM 8.6 °F -8.3 °F 1.4 °F 73% 30.02 in 1.8 mi WNW 15.0 mph 20.7 mph 0.00 in Snow Light Snow
12:35 PM 8.6 °F -7.7 °F 1.4 °F 73% 30.02 in 0.8 mi WNW 13.8 mph - 0.00 in Snow Light Snow
12:45 PM 8.6 °F -4.7 °F 1.4 °F 73% 30.02 in 3.0 mi WNW 9.2 mph - 0.00 in Snow Light Snow
12:53 PM 8.1 °F -7.0 °F -0.0 °F 70% 30.07 in 3.0 mi WNW 11.5 mph 20.7 mph 0.00 in Snow Light Snow
1:29 PM 10.4 °F -6.0 °F -2.2 °F 57% 30.02 in 10.0 mi WNW 15.0 mph 21.9 mph 0.00 in Snow Light Snow
1:53 PM 9.0 °F -9.0 °F -0.9 °F 64% 30.07 in 10.0 mi WNW 17.3 mph - 0.00 in Snow Light Snow
2:00 PM 8.6 °F -7.7 °F -0.4 °F 67% 30.02 in 1.8 mi WNW 13.8 mph - 0.00 in Snow Light Snow
2:04 PM 8.6 °F -7.0 °F -0.4 °F 67% 30.02 in 3.0 mi WNW 12.7 mph - 0.00 in Snow Light Snow
2:17 PM 8.6 °F -8.9 °F -0.4 °F 67% 30.02 in 2.0 mi WNW 16.1 mph - 0.00 in Snow Light Snow
2:21 PM 8.6 °F -7.7 °F -0.4 °F 67% 30.02 in 1.2 mi WNW 13.8 mph 21.9 mph 0.00 in Snow Light Snow
2:27 PM 8.6 °F -7.7 °F -0.4 °F 67% 30.02 in 1.8 mi NW 13.8 mph - 0.00 in Snow Light Snow
2:30 PM 8.6 °F -7.7 °F -0.4 °F 67% 30.03 in 3.0 mi WNW 13.8 mph - 0.00 in Snow Light Snow
2:47 PM 8.6 °F -9.5 °F -0.4 °F 67% 30.03 in 1.8 mi WNW 17.3 mph 24.2 mph 0.00 in Snow Light Snow
2:53 PM 8.1 °F -9.6 °F -0.0 °F 70% 30.09 in 1.2 mi WNW 16.1 mph 24.2 mph 0.00 in Snow Light Snow
3:06 PM 6.8 °F -9.3 °F 1.4 °F 79% 30.04 in 1.0 mi WNW 12.7 mph - 0.00 in Snow Light Snow
3:13 PM 6.8 °F -9.3 °F 1.4 °F 79% 30.05 in 0.5 mi WNW 12.7 mph - 0.00 in Snow Snow
3:26 PM 6.8 °F -11.3 °F 1.4 °F 79% 30.06 in 0.8 mi WNW 16.1 mph - 0.00 in Snow Light Snow
3:36 PM 6.8 °F -9.3 °F -0.4 °F 72% 30.06 in 1.5 mi West 12.7 mph 20.7 mph 0.00 in Snow Light Snow
3:42 PM 6.8 °F -13.4 °F -0.4 °F 72% 30.06 in 1.0 mi West 20.7 mph 28.8 mph 0.00 in Snow Light Snow
3:50 PM 6.8 °F -10.7 °F -2.2 °F 67% 30.06 in 0.8 mi West 15.0 mph 28.8 mph 0.00 in Snow Light Snow
3:53 PM 6.1 °F -10.9 °F -2.0 °F 69% 30.12 in 1.5 mi West 13.8 mph - 0.00 in Snow Light Snow
3:56 PM 6.8 °F -10.0 °F -2.2 °F 67% 30.06 in 4.0 mi West 13.8 mph - 0.00 in Snow Light Snow
4:08 PM 6.8 °F -12.4 °F -0.4 °F 72% 30.07 in 1.5 mi WNW 18.4 mph 28.8 mph 0.00 in Snow Light Snow
4:11 PM 6.8 °F -11.3 °F -0.4 °F 72% 30.08 in 0.8 mi WNW 16.1 mph 28.8 mph 0.00 in Snow Light Snow
4:18 PM 6.8 °F -11.8 °F -0.4 °F 72% 30.08 in 0.2 mi WNW 17.3 mph - 0.00 in Snow Heavy Snow
4:27 PM 5.0 °F -14.7 °F -0.4 °F 78% 30.09 in 0.5 mi WNW 18.4 mph 25.3 mph 0.00 in Snow Snow
4:37 PM 5.0 °F -13.6 °F -2.2 °F 72% 30.09 in 1.0 mi West 16.1 mph - 0.00 in Snow Light Snow
4:41 PM 6.8 °F -10.0 °F -2.2 °F 67% 30.09 in 1.8 mi West 13.8 mph - 0.00 in Snow Light Snow
4:53 PM 5.0 °F -13.0 °F -2.0 °F 73% 30.15 in 1.2 mi WNW 15.0 mph - 0.00 in Snow Light Snow
5:39 PM 3.2 °F -13.9 °F -4.0 °F 72% 30.11 in 2.0 mi WNW 12.7 mph 25.3 mph 0.00 in Snow Light Snow
5:42 PM 3.2 °F -15.3 °F -4.0 °F 72% 30.12 in 2.0 mi WNW 15.0 mph - 0.00 in   Haze
5:53 PM 3.9 °F -13.7 °F -2.9 °F 73% 30.18 in 1.0 mi WNW 13.8 mph 20.7 mph 0.00 in Snow Light Snow
6:11 PM 3.2 °F -15.9 °F -4.0 °F 72% 30.13 in 3.0 mi WNW 16.1 mph 24.2 mph 0.00 in Snow Light Snow
6:25 PM 3.2 °F -13.9 °F -7.6 °F 61% 30.14 in 6.0 mi WNW 12.7 mph 21.9 mph 0.00 in   Haze
6:53 PM 1.9 °F -16.2 °F -9.9 °F 58% 30.22 in 10.0 mi WNW 13.8 mph 21.9 mph 0.00 in   Clear
7:53 PM -0.0 °F -18.7 °F -9.9 °F 63% 30.26 in 10.0 mi WNW 13.8 mph - N/A   Clear
8:53 PM -2.0 °F -17.7 °F -9.9 °F 69% 30.29 in 10.0 mi West 9.2 mph - N/A   Clear
9:53 PM -5.1 °F -19.1 °F -11.9 °F 72% 30.31 in 10.0 mi WNW 6.9 mph - N/A   Clear
10:53 PM -9.9 °F -21.5 °F -15.0 °F 78% 30.34 in 10.0 mi WSW 4.6 mph - N/A   Clear
11:53 PM -9.0 °F -20.4 °F -13.0 °F 83% 30.35 in 10.0 mi SW 4.6 mph - N/A   Clear